User: anonymous   Login
Location: C�mpuri de-Sus
(45.9500°N, 22.5500°E)
Time: 18:41:52
(UTC+00:00)
Language:

Cosmos 2278 Rocket - Orbit

View from above orbital plane
View from above orbital plane
View from above satellite
View from above satellite

Ground track
Ground track

The orbit data is extracted from the following two-line orbital elements,

1 23088U 94023B   22021.67188658  .00000293  00000-0  17701-3 0  9998
2 23088  71.0012 356.9676 0001426  37.0088 323.1133 14.14700941432797
Epoch (UTC): 21 January 2022 16:07:31
Eccentricity: 0.0001426
inclination: 71.0012°
perigee height: 842 km
apogee height: 844 km
right ascension of ascending node: 356.9676°
argument of perigee: 37.0088°
revolutions per day: 14.14700941
mean anomaly at epoch: 323.1133°
orbit number at epoch: 43279

The dashed part of the orbit path shows where the satellite is in the earth's shadow,  

DLR